Weather History for KMPV - April, 2014

Change the Weather History Date:

Wednesday, April 16, 2014

  Actual Average Record
Temperature  
Mean Temperature 24 °F 43 °F  
Max Temperature 29 °F 54 °F 84 °F (2002)
Min Temperature 18 °F 32 °F 18 °F (1992)
Degree Days  
Heating Degree Days 41 22  
Month to date heating degree days 417 411  
Since 1 July heating degree days 8031 7436  
Cooling Degree Days 0 0  
Month to date cooling degree days 0 0  
Year to date cooling degree days 0 0  
Moisture  
Dew Point 15 °F    
Average Humidity 69    
Maximum Humidity 92    
Minimum Humidity 46    
Precipitation  
Precipitation T in 0.09 in 0.64 in (1954)
Month to date precipitation 1.34 1.39  
Year to date precipitation 8.70 8.27  
Sea Level Pressure  
Sea Level Pressure 30.21 in    
Wind  
Wind Speed 10 mph (NW)    
Max Wind Speed 24 mph    
Max Gust Speed 34 mph    
Visibility 7 miles    
Events Snow    
T = Trace of Precipitation, MM = Missing Value Source: NWS Daily Summary

Daily Weather History Graph

Daily Weather History Graph

Search for Another Location

Airport or City:

Trip Planner

Search our weather history database for the weather conditions in past years. The results will help you decide how hot, cold, wet, or windy it might be!

Date:

Astronomy

Apr. 16, 2014 Rise Set
Actual Time 6:05 AM EDT 7:35 PM EDT
Civil Twilight 5:34 AM EDT 8:06 PM EDT
Nautical Twilight 4:58 AM EDT 8:42 PM EDT
Astronomical Twilight 4:19 AM EDT 9:22 PM EDT
Moon 9:19 PM EDT (4/16) 6:48 AM EDT (4/16)
Length of Visible Light 14h 31m
Length of Day
13h 30m
Full, 98% of the Moon is Illuminated
Apr 16
Full
Apr 22
Last Quarter
Apr 29
New
May 6
First Quarter
May 14
Full

Hourly Weather History & Observations

Time (EDT) Temp. Windchill Dew Point Humidity Pressure Visibility Wind Dir Wind Speed Gust Speed Precip Events Conditions
12:03 AM 27.0 °F 15.2 °F 24.1 °F 89% 29.86 in 1.0 mi NW 15.0 mph 21.9 mph 0.00 in Snow Light Snow
12:08 AM 26.1 °F 15.6 °F 24.1 °F 92% 29.86 in 0.8 mi WNW 11.5 mph 25.3 mph 0.00 in Snow Light Snow
12:35 AM 25.0 °F 17.1 °F 24.1 °F 96% 29.88 in 1.0 mi NW 6.9 mph - 0.02 in Snow Light Snow
12:43 AM 25.0 °F 13.6 °F 24.1 °F 96% 29.88 in 1.2 mi NW 12.7 mph 18.4 mph 0.02 in Snow Light Snow
12:51 AM 25.0 °F 14.2 °F 23.0 °F 92% 29.92 in 1.2 mi NW 11.5 mph - 0.02 in Snow Light Snow
12:57 AM 25.0 °F 15.5 °F 23.0 °F 92% 29.88 in 1.0 mi NNW 9.2 mph - 0.00 in Snow Light Snow
12:59 AM 25.0 °F 15.5 °F 23.0 °F 92% 29.88 in 0.8 mi NNW 9.2 mph - 0.01 in Snow Light Snow
1:04 AM 24.1 °F 10.1 °F 21.9 °F 91% 29.89 in 1.0 mi NW 18.4 mph 27.6 mph 0.01 in Snow Light Snow
1:10 AM 24.1 °F 11.0 °F 19.9 °F 84% 29.89 in 1.2 mi NW 16.1 mph 33.4 mph 0.01 in Snow Light Snow
1:23 AM 23.0 °F 10.1 °F 19.9 °F 88% 29.90 in 2.0 mi NW 15.0 mph 26.5 mph 0.01 in Snow Light Snow
1:38 AM 23.0 °F 11.1 °F 19.9 °F 88% 29.92 in 4.0 mi NW 12.7 mph 26.5 mph 0.01 in Snow Light Snow
1:51 AM 23.0 °F 11.7 °F 19.0 °F 85% 29.95 in 9.0 mi NW 11.5 mph 21.9 mph 0.01 in   Overcast
2:15 AM 21.9 °F 9.2 °F 16.0 °F 78% 29.93 in 7.0 mi NW 13.8 mph 28.8 mph N/A   Scattered Clouds
2:25 AM 21.9 °F 6.2 °F 17.1 °F 82% 29.93 in 7.0 mi WNW 21.9 mph 33.4 mph 0.00 in Snow Light Snow
2:51 AM 21.0 °F 5.4 °F 16.0 °F 81% 29.98 in 5.0 mi WNW 20.7 mph 31.1 mph 0.00 in Snow Light Snow
3:51 AM 19.9 °F 6.7 °F 15.1 °F 81% 30.00 in 6.0 mi NW 13.8 mph 28.8 mph 0.00 in Snow Light Snow
4:30 AM 19.9 °F 5.7 °F 14.0 °F 78% 29.99 in 9.0 mi NW 16.1 mph 28.8 mph 0.00 in   Overcast
4:51 AM 19.0 °F 5.0 °F 14.0 °F 81% 30.04 in 10.0 mi NW 15.0 mph 26.5 mph 0.00 in   Overcast
5:51 AM 19.0 °F 5.0 °F 12.9 °F 77% 30.13 in 8.0 mi NW 15.0 mph 23.0 mph 0.00 in Snow Light Snow
6:16 AM 19.0 °F 5.6 °F 14.0 °F 81% 30.10 in 3.0 mi NW 13.8 mph 21.9 mph 0.00 in Snow Light Snow
6:24 AM 19.0 °F 5.6 °F 14.0 °F 81% 30.09 in 2.0 mi NW 13.8 mph - 0.00 in Snow Light Snow
6:27 AM 19.0 °F 4.5 °F 14.0 °F 81% 30.09 in 1.2 mi WNW 16.1 mph - 0.00 in Snow Light Snow
6:44 AM 19.0 °F 8.2 °F 15.1 °F 85% 30.11 in 2.0 mi NW 9.2 mph - 0.00 in Snow Light Snow
6:51 AM 19.0 °F 6.1 °F 15.1 °F 85% 30.17 in 3.0 mi NW 12.7 mph 19.6 mph 0.00 in Snow Light Snow
7:51 AM 19.0 °F 9.0 °F 12.0 °F 74% 30.25 in 7.0 mi NNW 8.1 mph - 0.00 in Snow Light Snow
8:51 AM 18.0 °F 2.2 °F 10.0 °F 71% 30.30 in 9.0 mi NW 18.4 mph 25.3 mph 0.00 in   Overcast
9:35 AM 19.9 °F 6.2 °F 10.9 °F 68% 30.28 in 10.0 mi NW 15.0 mph 26.5 mph 0.00 in   Overcast
9:51 AM 19.9 °F 5.7 °F 10.0 °F 65% 30.35 in 10.0 mi NW 16.1 mph 27.6 mph 0.00 in   Overcast
10:02 AM 19.9 °F 6.2 °F 10.0 °F 65% 30.30 in 10.0 mi NW 15.0 mph 28.8 mph N/A   Overcast
10:12 AM 19.9 °F 5.7 °F 10.9 °F 68% 30.30 in 10.0 mi NW 16.1 mph 23.0 mph N/A   Overcast
10:19 AM 19.9 °F 5.2 °F 10.9 °F 68% 30.31 in 10.0 mi NW 17.3 mph 26.5 mph N/A   Overcast
10:51 AM 21.0 °F 7.6 °F 10.0 °F 63% 30.38 in 10.0 mi NNW 15.0 mph 31.1 mph N/A   Mostly Cloudy
11:03 AM 21.9 °F 8.7 °F 10.9 °F 63% 30.33 in 10.0 mi NNW 15.0 mph 23.0 mph N/A   Mostly Cloudy
11:28 AM 21.9 °F 10.4 °F 10.0 °F 60% 30.35 in 10.0 mi NW 11.5 mph 23.0 mph N/A   Mostly Cloudy
11:42 AM 21.9 °F 10.4 °F 10.9 °F 63% 30.35 in 10.0 mi NNW 11.5 mph 24.2 mph N/A   Mostly Cloudy
11:51 AM 21.9 °F 11.0 °F 10.9 °F 63% 30.42 in 10.0 mi NNW 10.4 mph 23.0 mph N/A   Mostly Cloudy
12:51 PM 23.0 °F 11.7 °F 9.0 °F 55% 30.46 in 10.0 mi NNW 11.5 mph 23.0 mph N/A   Scattered Clouds
1:51 PM 25.0 °F 12.2 °F 10.0 °F 53% 30.49 in 10.0 mi WNW 16.1 mph 20.7 mph N/A   Partly Cloudy
2:51 PM 27.0 °F 16.1 °F 10.9 °F 51% 30.50 in 10.0 mi NNW 12.7 mph 19.6 mph N/A   Clear
3:51 PM 28.0 °F 17.0 °F 12.0 °F 51% 30.51 in 10.0 mi WNW 13.8 mph 18.4 mph N/A   Clear
4:51 PM 28.0 °F 18.1 °F 10.9 °F 49% 30.53 in 10.0 mi NW 11.5 mph - N/A   Clear
5:51 PM 28.0 °F 20.8 °F 10.9 °F 49% 30.54 in 10.0 mi NNW 6.9 mph - N/A   Clear
6:51 PM 28.0 °F 21.7 °F 10.0 °F 47% 30.58 in 10.0 mi NNW 5.8 mph - N/A   Clear
7:51 PM 25.0 °F - 12.9 °F 60% 30.60 in 10.0 mi Calm Calm - N/A   Clear
8:51 PM 21.9 °F - 14.0 °F 72% 30.65 in 10.0 mi Calm Calm - N/A   Clear
9:51 PM 19.9 °F - 14.0 °F 78% 30.67 in 10.0 mi Calm Calm - N/A   Clear
10:51 PM 19.9 °F - 12.9 °F 74% 30.68 in 10.0 mi Calm Calm - N/A   Clear
11:51 PM 19.0 °F - 14.0 °F 81% 30.70 in 10.0 mi Calm Calm - N/A   Clear